Location: Gwatt
(46.7204°N, 7.6223°E)
Time: 17:07:52
(UTC+00:00)

deb Explorer IX - Pass Details

Date: 23 January 2021
Orbit: 537 x 1102 km, 38.8° (Epoch: 04 March)

Event Time Altitude Azimuth Distance (km) Brightness Sun altitude
Rises 22:04:06 0° 266° (W) 3,189 - -56.0°
Reaches altitude 10° 22:07:30 10° 246° (WSW) 2,141 - -56.4°
Maximum altitude 22:10:29 16° 208° (SSW) 1,666 - -56.8°
Drops below altitude 10° 22:13:16 10° 170° (S) 1,954 - -57.1°
Sets 22:16:10 0° 148° (SSE) 2,777 - -57.4°
